| time (UTC) | temp F | wind direction | speed MPH | gust MPH | rain 1hr in | rain 24hr in | rain mn in | humidity % | barometer mb |
| 20260506123322 | 52 | 250 | 1.0 | 2.0 | 0.00 | 0.00 | 0.00 | 89 | 1021.8 |
| 20260506122819 | 52 | 282 | 0.0 | 1.0 | 0.00 | 0.00 | 0.00 | 89 | 1021.7 |
| 20260506122316 | 52 | 305 | 2.0 | 2.0 | 0.00 | 0.00 | 0.00 | 89 | 1021.6 |
| 20260506121814 | 52 | 272 | 0.0 | 1.0 | 0.00 | 0.00 | 0.00 | 89 | 1021.8 |
| 20260506121311 | 52 | 259 | 1.0 | 2.0 | 0.00 | 0.00 | 0.00 | 89 | 1021.8 |
| 20260506120808 | 52 | 271 | 0.0 | 2.0 | 0.00 | 0.00 | 0.00 | 89 | 1022.0 |
| 20260506120306 | 52 | 267 | 0.0 | 0.0 | 0.00 | 0.00 | 0.00 | 89 | 1021.8 |
| 20260506115803 | 52 | 257 | 1.0 | 3.0 | 0.00 | 0.00 | 0.00 | 89 | 1021.9 |
| 20260506115306 | 52 | 275 | 2.0 | 2.0 | 0.00 | 0.00 | 0.00 | 89 | 1021.8 |
| 20260506114759 | 52 | 271 | 0.0 | 2.0 | 0.00 | 0.00 | 0.00 | 90 | 1021.8 |
| 20260506114256 | 52 | 221 | 0.0 | 1.0 | 0.00 | 0.00 | 0.00 | 91 | 1021.8 |
| 20260506113755 | 52 | 243 | 0.0 | 0.0 | 0.00 | 0.00 | 0.00 | 92 | 1021.5 |
| 20260506113252 | 52 | 243 | 0.0 | 0.0 | 0.00 | 0.00 | 0.00 | 92 | 1021.6 |
| 20260506112748 | 52 | 255 | 0.0 | 1.0 | 0.00 | 0.00 | 0.00 | 92 | 1021.5 |
| 20260506112246 | 52 | 266 | 0.0 | 0.0 | 0.00 | 0.00 | 0.00 | 92 | 1021.4 |
| 20260506111743 | 52 | 266 | 0.0 | 0.0 | 0.00 | 0.00 | 0.00 | 92 | 1021.4 |
| 20260506111241 | 52 | 224 | 1.0 | 2.0 | 0.00 | 0.00 | 0.00 | 92 | 1021.2 |
| 20260506110737 | 52 | 254 | 0.0 | 0.0 | 0.00 | 0.00 | 0.00 | 92 | 1021.2 |
| 20260506110235 | 52 | 238 | 0.0 | 1.0 | 0.00 | 0.00 | 0.00 | 92 | 1021.4 |
| 20260506105731 | 52 | 230 | 1.0 | 3.0 | 0.00 | 0.00 | 0.00 | 92 | 1021.1 |
| 20260506105229 | 52 | 252 | 0.0 | 1.0 | 0.00 | 0.00 | 0.00 | 92 | 1021.1 |
| 20260506104727 | 52 | 270 | 0.0 | 0.0 | 0.00 | 0.00 | 0.00 | 91 | 1020.9 |
| 20260506104224 | 52 | 260 | 0.0 | 2.0 | 0.00 | 0.00 | 0.00 | 91 | 1021.0 |
| 20260506103721 | 52 | 271 | 1.0 | 1.0 | 0.00 | 0.00 | 0.00 | 92 | 1021.2 |
| 20260506103218 | 52 | 267 | 0.0 | 0.0 | 0.00 | 0.00 | 0.00 | 92 | 1021.1 |
| 20260506102716 | 52 | 268 | 0.0 | 0.0 | 0.00 | 0.00 | 0.00 | 92 | 1021.0 |
| 20260506102214 | 52 | 268 | 0.0 | 0.0 | 0.00 | 0.00 | 0.00 | 92 | 1021.1 |
| 20260506101710 | 52 | 268 | 0.0 | 0.0 | 0.00 | 0.00 | 0.00 | 92 | 1020.8 |
| 20260506101207 | 52 | 267 | 0.0 | 1.0 | 0.00 | 0.00 | 0.00 | 92 | 1020.8 |
| 20260506100705 | 52 | 258 | 0.0 | 1.0 | 0.00 | 0.00 | 0.00 | 92 | 1020.7 |
| 20260506100203 | 52 | 221 | 2.0 | 2.0 | 0.00 | 0.00 | 0.00 | 92 | 1020.8 |
| 20260506095701 | 52 | 237 | 1.0 | 2.0 | 0.00 | 0.00 | 0.00 | 92 | 1020.6 |
| 20260506095157 | 52 | 230 | 1.0 | 2.0 | 0.00 | 0.00 | 0.00 | 91 | 1020.7 |
| 20260506094655 | 53 | 241 | 1.0 | 1.0 | 0.00 | 0.00 | 0.00 | 91 | 1020.6 |
| 20260506094152 | 53 | 245 | 1.0 | 2.0 | 0.00 | 0.00 | 0.00 | 91 | 1020.6 |
| 20260506093651 | 53 | 264 | 0.0 | 0.0 | 0.00 | 0.00 | 0.00 | 90 | 1020.7 |
| 20260506093148 | 53 | 251 | 0.0 | 1.0 | 0.00 | 0.00 | 0.00 | 90 | 1020.6 |
| 20260506092645 | 53 | 261 | 0.0 | 0.0 | 0.00 | 0.00 | 0.00 | 89 | 1020.6 |
| 20260506092142 | 53 | 278 | 0.0 | 0.0 | 0.00 | 0.00 | 0.00 | 88 | 1020.6 |
| 20260506091640 | 53 | 260 | 0.0 | 1.0 | 0.00 | 0.00 | 0.00 | 88 | 1020.7 |
| 20260506091138 | 53 | 275 | 1.0 | 1.0 | 0.00 | 0.00 | 0.00 | 88 | 1020.7 |
| 20260506090636 | 53 | 273 | 0.0 | 1.0 | 0.00 | 0.00 | 0.00 | 88 | 1020.8 |
| 20260506090131 | 53 | 274 | 0.0 | 1.0 | 0.00 | 0.00 | 0.00 | 88 | 1020.6 |
| 20260506085629 | 53 | 210 | 1.0 | 2.0 | 0.00 | 0.00 | 0.00 | 88 | 1020.5 |
| 20260506085125 | 53 | 247 | 0.0 | 1.0 | 0.00 | 0.00 | 0.00 | 88 | 1020.7 |
| 20260506084621 | 53 | 273 | 0.0 | 2.0 | 0.00 | 0.00 | 0.00 | 88 | 1020.5 |
| 20260506084118 | 53 | 276 | 1.0 | 1.0 | 0.00 | 0.00 | 0.00 | 88 | 1020.3 |
| 20260506083615 | 53 | 256 | 0.0 | 3.0 | 0.00 | 0.00 | 0.00 | 88 | 1020.6 |
| 20260506083113 | 53 | 271 | 0.0 | 2.0 | 0.00 | 0.00 | 0.00 | 88 | 1020.4 |
| 20260506082609 | 53 | 269 | 1.0 | 2.0 | 0.00 | 0.00 | 0.00 | 88 | 1020.4 |
| 20260506082105 | 53 | 290 | 0.0 | 2.0 | 0.00 | 0.00 | 0.00 | 88 | 1020.4 |
| 20260506081604 | 53 | 271 | 0.0 | 2.0 | 0.00 | 0.00 | 0.00 | 88 | 1020.5 |
| 20260506081101 | 53 | 343 | 3.0 | 5.0 | 0.00 | 0.00 | 0.00 | 88 | 1020.3 |
| 20260506080558 | 53 | 215 | 3.0 | 7.0 | 0.00 | 0.00 | 0.00 | 88 | 1020.3 |
| 20260506073038 | 53 | 306 | 0.0 | 3.0 | 0.00 | 0.00 | 0.00 | 89 | 1019.9 |
| 20260506072536 | 53 | 338 | 2.0 | 2.0 | 0.00 | 0.00 | 0.00 | 89 | 1020.1 |
| 20260506072033 | 53 | 66 | 2.0 | 3.0 | 0.00 | 0.00 | 0.00 | 89 | 1020.2 |
| 20260506071531 | 53 | 82 | 2.0 | 2.0 | 0.00 | 0.00 | 0.00 | 90 | 1020.0 |
| 20260506071028 | 53 | 289 | 0.0 | 2.0 | 0.00 | 0.00 | 0.00 | 90 | 1020.0 |
| 20260506070525 | 53 | 294 | 1.0 | 2.0 | 0.00 | 0.00 | 0.00 | 90 | 1019.9 |
| 20260506062503 | 53 | 291 | 0.0 | 2.0 | 0.00 | 0.00 | 0.00 | 89 | 1019.5 |
| 20260506061959 | 53 | 300 | 0.0 | 2.0 | 0.00 | 0.00 | 0.00 | 89 | 1019.6 |
| 20260506061455 | 53 | 307 | 1.0 | 2.0 | 0.00 | 0.00 | 0.00 | 89 | 1019.5 |
| 20260506060953 | 53 | 300 | 1.0 | 2.0 | 0.00 | 0.00 | 0.00 | 89 | 1019.5 |
| 20260506060451 | 53 | 279 | 1.0 | 2.0 | 0.00 | 0.00 | 0.00 | 89 | 1019.5 |
| 20260506050920 | 53 | 267 | 0.0 | 1.0 | 0.00 | 0.00 | 0.00 | 89 | 1019.2 |
| 20260506050418 | 53 | 284 | 1.0 | 2.0 | 0.00 | 0.00 | 0.00 | 89 | 1019.4 |
| 20260506044908 | 52 | 354 | 2.0 | 3.0 | 0.00 | 0.00 | 0.00 | 90 | 1019.4 |
| 20260506044406 | 52 | 293 | 1.0 | 2.0 | 0.00 | 0.00 | 0.00 | 90 | 1019.3 |
| 20260506043903 | 52 | 249 | 1.0 | 3.0 | 0.00 | 0.00 | 0.00 | 90 | 1019.4 |
| 20260506043400 | 52 | 299 | 2.0 | 3.0 | 0.00 | 0.00 | 0.00 | 90 | 1019.3 |
| 20260506042858 | 52 | 280 | 1.0 | 2.0 | 0.00 | 0.00 | 0.00 | 90 | 1019.3 |
| 20260506042357 | 52 | 290 | 1.0 | 2.0 | 0.00 | 0.00 | 0.00 | 90 | 1019.3 |
| 20260506041855 | 52 | 312 | 3.0 | 3.0 | 0.00 | 0.00 | 0.00 | 90 | 1019.1 |
| 20260506041354 | 52 | 257 | 1.0 | 3.0 | 0.00 | 0.00 | 0.00 | 90 | 1019.0 |
| 20260506040849 | 52 | 263 | 0.0 | 2.0 | 0.00 | 0.00 | 0.00 | 90 | 1018.9 |
| 20260506040347 | 52 | 347 | 0.0 | 3.0 | 0.00 | 0.00 | 0.00 | 90 | 1018.8 |
| 20260506035842 | 52 | 301 | 1.0 | 2.0 | 0.00 | 0.00 | 0.00 | 90 | 1019.0 |
| 20260506035340 | 52 | 280 | 1.0 | 2.0 | 0.00 | 0.00 | 0.00 | 90 | 1018.5 |
| 20260506034837 | 52 | 288 | 1.0 | 2.0 | 0.00 | 0.00 | 0.00 | 90 | 1018.8 |
| 20260506034334 | 52 | 279 | 1.0 | 1.0 | 0.00 | 0.00 | 0.00 | 90 | 1018.6 |
| 20260506033831 | 53 | 287 | 1.0 | 2.0 | 0.00 | 0.00 | 0.00 | 89 | 1018.3 |
| 20260506033328 | 53 | 301 | 1.0 | 2.0 | 0.00 | 0.00 | 0.00 | 88 | 1018.5 |
| 20260506032825 | 53 | 313 | 3.0 | 3.0 | 0.00 | 0.00 | 0.00 | 88 | 1018.3 |
| 20260506032322 | 53 | 274 | 1.0 | 3.0 | 0.00 | 0.00 | 0.00 | 88 | 1018.3 |
| 20260506031819 | 53 | 317 | 2.0 | 3.0 | 0.00 | 0.00 | 0.00 | 88 | 1018.4 |
| 20260506031316 | 53 | 285 | 2.0 | 5.0 | 0.00 | 0.00 | 0.00 | 87 | 1018.3 |
| 20260506030814 | 53 | 248 | 2.0 | 5.0 | 0.00 | 0.00 | 0.00 | 87 | 1018.3 |
| 20260506030311 | 53 | 298 | 0.0 | 3.0 | 0.00 | 0.00 | 0.00 | 87 | 1018.2 |
| 20260506025808 | 53 | 245 | 2.0 | 2.0 | 0.00 | 0.00 | 0.00 | 87 | 1018.2 |
| 20260506025306 | 54 | 264 | 3.0 | 5.0 | 0.00 | 0.00 | 0.00 | 87 | 1018.4 |
| 20260506024802 | 54 | 286 | 2.0 | 7.0 | 0.00 | 0.00 | 0.00 | 87 | 1018.1 |
| 20260506024258 | 54 | 277 | 6.0 | 8.0 | 0.00 | 0.00 | 0.00 | 87 | 1018.2 |
| 20260506023754 | 54 | 286 | 4.0 | 7.0 | 0.00 | 0.00 | 0.00 | 86 | 1018.3 |
| 20260506023252 | 54 | 316 | 3.0 | 6.0 | 0.00 | 0.00 | 0.00 | 86 | 1018.2 |
| 20260506022748 | 54 | 260 | 2.0 | 5.0 | 0.00 | 0.00 | 0.00 | 86 | 1018.3 |
| 20260506022246 | 54 | 318 | 5.0 | 6.0 | 0.00 | 0.00 | 0.00 | 85 | 1018.2 |
| 20260506021744 | 54 | 274 | 3.0 | 6.0 | 0.00 | 0.00 | 0.00 | 85 | 1018.3 |
| 20260506021240 | 55 | 191 | 3.0 | 5.0 | 0.00 | 0.00 | 0.00 | 84 | 1018.2 |
| 20260506020737 | 55 | 275 | 3.0 | 7.0 | 0.00 | 0.00 | 0.00 | 83 | 1018.3 |
| 20260506020235 | 55 | 336 | 2.0 | 6.0 | 0.00 | 0.00 | 0.00 | 83 | 1018.3 |
| 20260506015732 | 55 | 253 | 0.0 | 5.0 | 0.00 | 0.00 | 0.00 | 83 | 1018.1 |
| 20260506015230 | 56 | 320 | 6.0 | 7.0 | 0.00 | 0.00 | 0.00 | 82 | 1018.3 |
| 20260506014727 | 56 | 319 | 4.0 | 5.0 | 0.00 | 0.00 | 0.00 | 81 | 1018.1 |
| 20260506014223 | 56 | 289 | 5.0 | 6.0 | 0.00 | 0.00 | 0.00 | 81 | 1018.2 |
| 20260506013720 | 56 | 253 | 3.0 | 7.0 | 0.00 | 0.00 | 0.00 | 81 | 1018.4 |
| 20260506013217 | 56 | 216 | 3.0 | 5.0 | 0.00 | 0.00 | 0.00 | 81 | 1018.4 |
| 20260506012713 | 56 | 241 | 1.0 | 3.0 | 0.00 | 0.00 | 0.00 | 81 | 1018.5 |
| 20260506012211 | 56 | 152 | 3.0 | 9.0 | 0.00 | 0.00 | 0.00 | 80 | 1018.4 |
| 20260506011708 | 57 | 239 | 1.0 | 6.0 | 0.00 | 0.00 | 0.00 | 80 | 1018.4 |
| 20260506011204 | 56 | 275 | 1.0 | 5.0 | 0.00 | 0.00 | 0.00 | 80 | 1018.4 |
| 20260506010703 | 57 | 240 | 4.0 | 9.0 | 0.00 | 0.00 | 0.00 | 79 | 1018.4 |
| 20260506010200 | 57 | 304 | 3.0 | 5.0 | 0.00 | 0.00 | 0.00 | 80 | 1018.4 |
| 20260506005657 | 57 | 252 | 5.0 | 8.0 | 0.00 | 0.00 | 0.00 | 79 | 1018.3 |
| 20260506005153 | 57 | 261 | 4.0 | 8.0 | 0.00 | 0.00 | 0.00 | 80 | 1018.4 |
| 20260506004649 | 58 | 261 | 5.0 | 6.0 | 0.00 | 0.00 | 0.00 | 78 | 1018.5 |
| 20260506004147 | 57 | 273 | 1.0 | 9.0 | 0.00 | 0.00 | 0.00 | 78 | 1018.2 |
| 20260506003643 | 58 | 306 | 4.0 | 13.0 | 0.00 | 0.00 | 0.00 | 79 | 1018.2 |
| 20260506003139 | 58 | 251 | 3.0 | 5.0 | 0.00 | 0.00 | 0.00 | 77 | 1018.3 |
| 20260506002635 | 58 | 201 | 4.0 | 7.0 | 0.00 | 0.00 | 0.00 | 78 | 1018.4 |
| 20260506002132 | 58 | 276 | 1.0 | 9.0 | 0.00 | 0.00 | 0.00 | 78 | 1018.4 |
| 20260506001627 | 57 | 348 | 6.0 | 9.0 | 0.00 | 0.00 | 0.00 | 79 | 1018.3 |
| 20260506001125 | 57 | 319 | 2.0 | 14.0 | 0.00 | 0.00 | 0.00 | 80 | 1018.5 |
| 20260506000622 | 57 | 295 | 2.0 | 7.0 | 0.00 | 0.00 | 0.00 | 80 | 1018.6 |
| 20260506000119 | 57 | 277 | 5.0 | 14.0 | 0.00 | 0.00 | 0.00 | 80 | 1018.6 |
| 20260505235617 | 57 | 307 | 4.0 | 5.0 | 0.00 | 0.00 | 0.00 | 79 | 1018.6 |
| 20260505235114 | 57 | 271 | 3.0 | 9.0 | 0.00 | 0.00 | 0.00 | 79 | 1018.8 |
| 20260505234611 | 57 | 261 | 7.0 | 8.0 | 0.00 | 0.00 | 0.00 | 79 | 1018.7 |
| 20260505234108 | 57 | 200 | 2.0 | 8.0 | 0.00 | 0.00 | 0.00 | 79 | 1018.7 |
| 20260505233606 | 57 | 25 | 4.0 | 7.0 | 0.00 | 0.00 | 0.00 | 79 | 1018.7 |
| 20260505233102 | 57 | 246 | 6.0 | 10.0 | 0.00 | 0.00 | 0.00 | 79 | 1019.0 |
| 20260505232601 | 57 | 133 | 5.0 | 7.0 | 0.00 | 0.00 | 0.00 | 79 | 1018.9 |
| 20260505232058 | 57 | 274 | 4.0 | 6.0 | 0.00 | 0.00 | 0.00 | 79 | 1018.9 |
| 20260505231554 | 57 | 36 | 3.0 | 9.0 | 0.00 | 0.00 | 0.00 | 78 | 1019.1 |
| 20260505231053 | 57 | 259 | 6.0 | 8.0 | 0.00 | 0.00 | 0.00 | 78 | 1019.0 |
| 20260505230550 | 57 | 288 | 3.0 | 14.0 | 0.00 | 0.00 | 0.00 | 79 | 1019.2 |
| 20260505230046 | 58 | 42 | 2.0 | 11.0 | 0.00 | 0.00 | 0.00 | 78 | 1019.0 |
| 20260505225543 | 57 | 1 | 4.0 | 6.0 | 0.00 | 0.00 | 0.00 | 79 | 1019.2 |
| 20260505225039 | 57 | 82 | 4.0 | 9.0 | 0.00 | 0.00 | 0.00 | 79 | 1019.2 |
| 20260505224537 | 58 | 124 | 4.0 | 9.0 | 0.00 | 0.00 | 0.00 | 79 | 1019.1 |
| 20260505224034 | 58 | 251 | 2.0 | 9.0 | 0.00 | 0.00 | 0.00 | 77 | 1019.1 |
| 20260505223531 | 58 | 242 | 4.0 | 8.0 | 0.00 | 0.00 | 0.00 | 77 | 1019.2 |
| 20260505223027 | 57 | 217 | 5.0 | 9.0 | 0.00 | 0.00 | 0.00 | 79 | 1019.3 |
| 20260505222523 | 57 | 288 | 5.0 | 8.0 | 0.00 | 0.00 | 0.00 | 79 | 1019.4 |
| 20260505222019 | 58 | 324 | 4.0 | 8.0 | 0.00 | 0.00 | 0.00 | 77 | 1019.5 |
| 20260505221517 | 58 | 104 | 2.0 | 8.0 | 0.00 | 0.00 | 0.00 | 78 | 1019.4 |
| 20260505221013 | 59 | 279 | 3.0 | 8.0 | 0.00 | 0.00 | 0.00 | 76 | 1019.3 |
| 20260505220511 | 58 | 293 | 5.0 | 9.0 | 0.00 | 0.00 | 0.00 | 77 | 1019.6 |
| 20260505220009 | 58 | 278 | 3.0 | 8.0 | 0.00 | 0.00 | 0.00 | 77 | 1019.6 |
| 20260505215506 | 58 | 280 | 3.0 | 6.0 | 0.00 | 0.00 | 0.00 | 78 | 1019.7 |
| 20260505215004 | 57 | 270 | 3.0 | 6.0 | 0.00 | 0.00 | 0.00 | 78 | 1019.6 |
| 20260505214502 | 59 | 312 | 2.0 | 2.0 | 0.00 | 0.00 | 0.00 | 77 | 1019.7 |
| 20260505213958 | 59 | 252 | 7.0 | 9.0 | 0.00 | 0.00 | 0.00 | 77 | 1019.9 |
| 20260505213456 | 58 | 294 | 5.0 | 6.0 | 0.00 | 0.00 | 0.00 | 79 | 1019.7 |
| 20260505212952 | 58 | 253 | 7.0 | 9.0 | 0.00 | 0.00 | 0.00 | 78 | 1020.0 |
| 20260505212449 | 58 | 240 | 5.0 | 7.0 | 0.00 | 0.00 | 0.00 | 77 | 1019.7 |
| 20260505211945 | 59 | 274 | 5.0 | 7.0 | 0.00 | 0.00 | 0.00 | 77 | 1019.7 |
| 20260505211443 | 58 | 263 | 3.0 | 8.0 | 0.00 | 0.00 | 0.00 | 77 | 1019.5 |
| 20260505210939 | 58 | 234 | 5.0 | 9.0 | 0.00 | 0.00 | 0.00 | 78 | 1020.0 |
| 20260505210436 | 57 | 212 | 5.0 | 8.0 | 0.00 | 0.00 | 0.00 | 79 | 1020.0 |
| 20260505205933 | 57 | 266 | 5.0 | 14.0 | 0.00 | 0.00 | 0.00 | 81 | 1019.9 |
| 20260505205432 | 58 | 261 | 9.0 | 10.0 | 0.00 | 0.00 | 0.00 | 79 | 1019.8 |
| 20260505204928 | 57 | 271 | 5.0 | 9.0 | 0.00 | 0.00 | 0.00 | 81 | 1019.9 |
| 20260505204426 | 57 | 273 | 6.0 | 9.0 | 0.00 | 0.00 | 0.00 | 82 | 1019.8 |
| 20260505203923 | 57 | 274 | 6.0 | 11.0 | 0.00 | 0.00 | 0.00 | 81 | 1019.8 |
| 20260505203419 | 56 | 254 | 6.0 | 8.0 | 0.00 | 0.00 | 0.00 | 82 | 1020.0 |
| 20260505202916 | 56 | 213 | 7.0 | 10.0 | 0.00 | 0.00 | 0.00 | 84 | 1020.0 |
| 20260505202412 | 56 | 242 | 3.0 | 5.0 | 0.00 | 0.00 | 0.00 | 83 | 1020.0 |
| 20260505201909 | 56 | 256 | 3.0 | 8.0 | 0.00 | 0.00 | 0.00 | 83 | 1020.0 |
| 20260505201406 | 56 | 272 | 7.0 | 8.0 | 0.00 | 0.00 | 0.00 | 83 | 1020.0 |
| 20260505200904 | 55 | 261 | 6.0 | 7.0 | 0.00 | 0.00 | 0.00 | 84 | 1020.1 |
| 20260505200401 | 55 | 264 | 4.0 | 7.0 | 0.00 | 0.00 | 0.00 | 85 | 1019.8 |
| 20260505195856 | 55 | 249 | 3.0 | 9.0 | 0.00 | 0.00 | 0.00 | 85 | 1019.8 |
| 20260505195354 | 56 | 251 | 3.0 | 10.0 | 0.00 | 0.00 | 0.00 | 84 | 1020.1 |
| 20260505194851 | 56 | 277 | 3.0 | 6.0 | 0.00 | 0.00 | 0.00 | 82 | 1019.7 |
| 20260505194349 | 56 | 249 | 3.0 | 6.0 | 0.00 | 0.00 | 0.00 | 83 | 1019.9 |
| 20260505193848 | 55 | 244 | 5.0 | 8.0 | 0.00 | 0.00 | 0.00 | 85 | 1019.9 |
| 20260505193347 | 55 | 234 | 5.0 | 9.0 | 0.00 | 0.00 | 0.00 | 84 | 1019.8 |
| 20260505192844 | 55 | 282 | 3.0 | 6.0 | 0.00 | 0.00 | 0.00 | 85 | 1019.8 |
| 20260505192342 | 56 | 255 | 6.0 | 9.0 | 0.00 | 0.00 | 0.00 | 84 | 1020.0 |
| 20260505191839 | 55 | 242 | 4.0 | 8.0 | 0.00 | 0.00 | 0.00 | 85 | 1020.0 |
| 20260505191338 | 55 | 268 | 6.0 | 7.0 | 0.00 | 0.00 | 0.00 | 84 | 1019.9 |
| 20260505190834 | 55 | 246 | 3.0 | 8.0 | 0.00 | 0.00 | 0.00 | 85 | 1019.9 |
| 20260505190330 | 55 | 253 | 5.0 | 7.0 | 0.00 | 0.00 | 0.00 | 85 | 1020.1 |
| 20260505185826 | 55 | 233 | 4.0 | 7.0 | 0.00 | 0.00 | 0.00 | 85 | 1019.9 |
| 20260505185322 | 55 | 294 | 3.0 | 5.0 | 0.00 | 0.00 | 0.00 | 85 | 1020.0 |
| 20260505184819 | 55 | 250 | 2.0 | 5.0 | 0.00 | 0.00 | 0.00 | 85 | 1019.8 |
| 20260505184316 | 55 | 261 | 3.0 | 5.0 | 0.00 | 0.00 | 0.00 | 86 | 1019.8 |
| 20260505183813 | 55 | 261 | 3.0 | 3.0 | 0.00 | 0.00 | 0.00 | 85 | 1019.9 |
| 20260505183310 | 55 | 271 | 3.0 | 3.0 | 0.00 | 0.00 | 0.00 | 86 | 1020.0 |
| 20260505182806 | 54 | 272 | 4.0 | 5.0 | 0.00 | 0.00 | 0.00 | 87 | 1019.9 |
| 20260505182305 | 54 | 258 | 3.0 | 5.0 | 0.00 | 0.00 | 0.00 | 87 | 1019.8 |
| 20260505181800 | 54 | 271 | 2.0 | 5.0 | 0.00 | 0.00 | 0.00 | 87 | 1019.9 |
| 20260505181257 | 54 | 270 | 4.0 | 6.0 | 0.00 | 0.00 | 0.00 | 88 | 1019.8 |
| 20260505180753 | 54 | 252 | 3.0 | 5.0 | 0.00 | 0.00 | 0.00 | 88 | 1019.7 |
| 20260505180250 | 54 | 270 | 1.0 | 3.0 | 0.00 | 0.00 | 0.00 | 88 | 1019.5 |
| 20260505175746 | 54 | 214 | 2.0 | 3.0 | 0.00 | 0.00 | 0.00 | 89 | 1019.8 |
| 20260505175243 | 54 | 251 | 1.0 | 5.0 | 0.00 | 0.00 | 0.00 | 89 | 1019.5 |
| 20260505174739 | 54 | 254 | 2.0 | 5.0 | 0.00 | 0.00 | 0.00 | 88 | 1019.6 |
| 20260505174237 | 54 | 269 | 3.0 | 5.0 | 0.00 | 0.00 | 0.00 | 89 | 1019.6 |
| 20260505173733 | 54 | 258 | 3.0 | 5.0 | 0.00 | 0.00 | 0.00 | 89 | 1019.5 |
| 20260505173230 | 54 | 266 | 3.0 | 5.0 | 0.00 | 0.00 | 0.00 | 89 | 1019.6 |
| 20260505172727 | 54 | 262 | 2.0 | 3.0 | 0.00 | 0.00 | 0.00 | 90 | 1019.4 |
| 20260505172224 | 53 | 254 | 3.0 | 3.0 | 0.00 | 0.00 | 0.00 | 90 | 1019.3 |
| 20260505171723 | 54 | 249 | 3.0 | 5.0 | 0.00 | 0.00 | 0.00 | 89 | 1019.5 |
| 20260505171221 | 54 | 255 | 1.0 | 2.0 | 0.00 | 0.00 | 0.00 | 89 | 1019.6 |
| 20260505170717 | 54 | 255 | 1.0 | 2.0 | 0.00 | 0.00 | 0.00 | 90 | 1019.2 |
| 20260505170214 | 54 | 257 | 0.0 | 2.0 | 0.00 | 0.00 | 0.00 | 88 | 1019.4 |
| 20260505165710 | 54 | 257 | 0.0 | 1.0 | 0.00 | 0.00 | 0.00 | 89 | 1019.5 |
| 20260505165206 | 53 | 259 | 1.0 | 2.0 | 0.00 | 0.00 | 0.00 | 90 | 1019.4 |
| 20260505164701 | 53 | 256 | 2.0 | 2.0 | 0.00 | 0.00 | 0.00 | 90 | 1019.5 |
| 20260505164159 | 53 | 262 | 1.0 | 2.0 | 0.00 | 0.00 | 0.00 | 90 | 1019.3 |
| 20260505163657 | 53 | 269 | 2.0 | 2.0 | 0.00 | 0.00 | 0.00 | 91 | 1019.3 |
| 20260505163155 | 53 | 243 | 3.0 | 3.0 | 0.00 | 0.00 | 0.00 | 91 | 1019.3 |
| 20260505162652 | 53 | 266 | 2.0 | 2.0 | 0.00 | 0.00 | 0.00 | 90 | 1019.5 |
| 20260505162149 | 53 | 264 | 1.0 | 2.0 | 0.00 | 0.00 | 0.00 | 91 | 1019.4 |
| 20260505161646 | 53 | 263 | 0.0 | 3.0 | 0.00 | 0.00 | 0.00 | 91 | 1019.4 |
| 20260505161143 | 53 | 264 | 3.0 | 3.0 | 0.00 | 0.00 | 0.00 | 91 | 1019.5 |
| 20260505160641 | 53 | 254 | 2.0 | 3.0 | 0.00 | 0.00 | 0.00 | 91 | 1019.3 |
| 20260505160138 | 53 | 264 | 2.0 | 2.0 | 0.00 | 0.00 | 0.00 | 90 | 1019.2 |
| 20260505153118 | 53 | 267 | 1.0 | 3.0 | 0.00 | 0.00 | 0.00 | 91 | 1018.9 |
| 20260505152614 | 53 | 265 | 1.0 | 2.0 | 0.00 | 0.00 | 0.00 | 91 | 1019.2 |
| 20260505152110 | 53 | 266 | 2.0 | 2.0 | 0.00 | 0.00 | 0.00 | 91 | 1018.8 |
| 20260505151605 | 53 | 272 | 1.0 | 1.0 | 0.00 | 0.00 | 0.00 | 92 | 1018.9 |
| 20260505151103 | 53 | 265 | 1.0 | 2.0 | 0.00 | 0.00 | 0.00 | 92 | 1018.9 |
| 20260505150559 | 53 | 252 | 2.0 | 3.0 | 0.00 | 0.00 | 0.00 | 92 | 1018.8 |
| 20260505140525 | 51 | 273 | 0.0 | 1.0 | 0.00 | 0.00 | 0.00 | 96 | 1018.4 |
| 20260505124938 | 50 | 268 | 0.0 | 0.0 | 0.00 | 0.00 | 0.00 | 95 | 1017.4 |
| 20260505124435 | 50 | 266 | 0.0 | 0.0 | 0.00 | 0.00 | 0.00 | 96 | 1017.6 |
| 20260505123931 | 49 | 266 | 0.0 | 1.0 | 0.00 | 0.00 | 0.00 | 96 | 1017.4 |